Starlink 32415

operational
NORAD ID: 61861 Int'l Des: 2024-202 Owner: SPXS Country: US Constellation: starlink
LEOCIRCULAR

Über Starlink 32415

Beschreibung wird geladen...

Live-Position

3D-Globus wird geladen...

Nächste Überflüge

Höhenverlauf

Altitude vs Time

uPlot chart will show altitude changes over time

Zweizeiliger Elementsatz

1 61861U 24202S 25258.95967687 .00002800 00000-0 11118-3 0 9996
2 61861 42.9980 144.8821 0001685 283.3095 76.7569 15.27591320 48607
Epoch: 15. Sept. 2025 • Age: 12 hours

Aktueller Status

Höhe 483.8 km
Geschwindigkeit 7.63 km/s
Subsatellitenpunkt 24.82°N, 137.42°E
Startdatum 7. Nov. 2024
Alter 0.8 years
Typ internet

Technische Details

Klassifizierung Payload
Masse 730.00 kg
Trockenmasse 700.00 kg
Gesamtmasse 730.00 kg
Länge 0.30 m
Durchmesser 4.10 m
Spannweite 29.00 m
Form Box + pan
Hersteller SPXS
Bus-Typ Starlink V2M
Phasenstatus In Orbit
Besitzer/Staat SPXS/US

Große Konstellationen

Loading constellations...